Location: Christian Reformed Church
(43.0975°N, 93.8113°W)
Time: 05:17:48
(UTC+00:00)

IRS-P3 - Pass Details

Date: 13 December 2025
Orbit: 810 x 816 km, 99.0° (Epoch: 13 January)

Event Time Altitude Azimuth Distance (km) Brightness Sun altitude
Rises 23:39:07 0° 149° (SSE) 3,324 7.2 -10.4°
Reaches altitude 10° 23:41:30 10° 144° (SE) 2,396 6.4 -10.8°
Maximum altitude 23:46:36 51° 70° (ENE) 1,016 4.3 -11.6°
Drops below altitude 10° 23:51:44 10° 356° (N) 2,408 6.4 -12.5°
Sets 23:54:08 0° 351° (N) 3,343 7.2 -12.9°
